Time,TemperatureF,DewpointF,PressureIn,WindDirection,WindDirectionDegrees,WindSpeedMPH,WindSpeedGustMPH,Humidity,HourlyPrecipIn,Conditions,Clouds,dailyrainin,SoftwareType,DateUTC
2013-09-06 00:00:00,63.9,63.3,30.01,North,0,0.0,2.0,98,0.00,,,0.00,Wunderground PWS Mod,2013-09-06 04:00:00,
2013-09-06 00:04:00,65.2,64.3,30.00,North,355,0.0,0.0,97,0.00,,,0.00,Wunderground PWS Mod,2013-09-06 04:04:00,
2013-09-06 00:05:00,63.9,63.3,30.01,North,0,0.0,2.0,98,0.00,,,0.00,Wunderground PWS Mod,2013-09-06 04:05:00,
2013-09-06 00:08:00,64.8,63.9,30.00,North,355,0.0,0.0,97,0.00,,,0.00,Wunderground PWS Mod,2013-09-06 04:08:00,
2013-09-06 00:10:00,63.9,63.3,30.01,North,0,0.0,2.0,98,0.00,,,0.00,Wunderground PWS Mod,2013-09-06 04:10:00,
2013-09-06 00:13:00,64.7,63.8,30.00,North,355,0.0,0.0,97,0.00,,,0.00,Wunderground PWS Mod,2013-09-06 04:13:00,
2013-09-06 00:15:00,63.9,63.3,30.01,North,0,0.0,2.0,98,0.00,,,0.00,Wunderground PWS Mod,2013-09-06 04:15:00,
2013-09-06 00:20:00,63.9,63.3,30.01,North,0,0.0,2.0,98,0.00,,,0.00,Wunderground PWS Mod,2013-09-06 04:20:00,
2013-09-06 00:23:00,64.7,64.1,30.00,North,355,0.0,0.0,98,0.00,,,0.00,Wunderground PWS Mod,2013-09-06 04:23:00,
2013-09-06 00:25:00,63.9,63.3,30.01,North,0,0.0,2.0,98,0.00,,,0.00,Wunderground PWS Mod,2013-09-06 04:25:00,
2013-09-06 00:28:00,64.7,64.1,30.00,North,355,0.0,0.0,98,0.00,,,0.00,Wunderground PWS Mod,2013-09-06 04:28:00,
2013-09-06 00:30:00,63.9,63.3,30.01,North,0,0.0,2.0,98,0.00,,,0.00,Wunderground PWS Mod,2013-09-06 04:30:00,
2013-09-06 00:35:00,63.9,63.3,30.01,North,0,0.0,2.0,98,0.00,,,0.00,Wunderground PWS Mod,2013-09-06 04:35:00,
2013-09-06 00:39:00,64.5,63.9,30.00,North,355,0.0,0.0,98,0.00,,,0.00,Wunderground PWS Mod,2013-09-06 04:39:00,
2013-09-06 00:40:00,63.9,63.3,30.01,North,0,0.0,2.0,98,0.00,,,0.00,Wunderground PWS Mod,2013-09-06 04:40:00,
2013-09-06 00:45:00,63.7,63.4,30.01,North,0,0.0,3.0,99,0.00,,,0.00,Wunderground PWS Mod,2013-09-06 04:45:00,
2013-09-06 00:48:00,64.5,64.2,30.00,North,355,0.0,0.0,99,0.00,,,0.00,Wunderground PWS Mod,2013-09-06 04:48:00,
2013-09-06 00:50:00,63.7,63.4,30.01,North,0,0.0,3.0,99,0.00,,,0.00,Wunderground PWS Mod,2013-09-06 04:50:00,
2013-09-06 00:55:00,63.7,63.4,30.01,North,0,0.0,3.0,99,0.00,,,0.00,Wunderground PWS Mod,2013-09-06 04:55:00,
2013-09-06 00:58:00,64.3,64.0,30.00,North,355,0.0,0.0,99,0.00,,,0.00,Wunderground PWS Mod,2013-09-06 04:58:00,
2013-09-06 01:00:00,63.7,63.4,30.01,North,0,0.0,3.0,99,0.00,,,0.00,Wunderground PWS Mod,2013-09-06 05:00:00,
2013-09-06 01:05:00,63.7,63.4,30.01,North,0,0.0,3.0,99,0.00,,,0.00,Wunderground PWS Mod,2013-09-06 05:05:00,
2013-09-06 01:08:00,64.0,63.4,30.01,North,355,0.0,0.0,98,0.00,,,0.00,Wunderground PWS Mod,2013-09-06 05:08:00,
2013-09-06 01:10:00,63.7,63.4,30.01,North,0,0.0,3.0,99,0.00,,,0.00,Wunderground PWS Mod,2013-09-06 05:10:00,
2013-09-06 01:15:00,68.9,61.8,30.00,North,0,2.0,7.0,78,0.00,,,0.00,Wunderground PWS Mod,2013-09-06 05:15:00,
2013-09-06 01:18:00,64.2,63.9,30.01,North,355,0.0,0.0,99,0.00,,,0.00,Wunderground PWS Mod,2013-09-06 05:18:00,
2013-09-06 01:20:00,68.9,61.8,30.00,North,0,2.0,7.0,78,0.00,,,0.00,Wunderground PWS Mod,2013-09-06 05:20:00,
2013-09-06 01:25:00,68.9,61.8,30.00,North,0,2.0,7.0,78,0.00,,,0.00,Wunderground PWS Mod,2013-09-06 05:25:00,
2013-09-06 01:28:00,63.9,63.3,30.01,North,355,0.0,0.0,98,0.00,,,0.00,Wunderground PWS Mod,2013-09-06 05:28:00,
2013-09-06 01:30:00,68.9,61.8,30.00,North,0,2.0,7.0,78,0.00,,,0.00,Wunderground PWS Mod,2013-09-06 05:30:00,
2013-09-06 01:35:00,68.9,61.8,30.00,North,0,2.0,7.0,78,0.00,,,0.00,Wunderground PWS Mod,2013-09-06 05:35:00,
2013-09-06 01:38:00,63.7,63.1,30.01,North,355,0.0,0.0,98,0.00,,,0.00,Wunderground PWS Mod,2013-09-06 05:38:00,
2013-09-06 01:40:00,68.9,61.8,30.00,North,0,2.0,7.0,78,0.00,,,0.00,Wunderground PWS Mod,2013-09-06 05:40:00,
2013-09-06 01:45:00,69.8,62.3,29.99,North,0,1.0,6.0,77,0.00,,,0.00,Wunderground PWS Mod,2013-09-06 05:45:00,
2013-09-06 01:48:00,63.5,62.9,30.01,North,355,0.0,0.0,98,0.00,,,0.00,Wunderground PWS Mod,2013-09-06 05:48:00,
2013-09-06 01:50:00,69.8,62.3,29.99,North,0,1.0,6.0,77,0.00,,,0.00,Wunderground PWS Mod,2013-09-06 05:50:00,
2013-09-06 01:55:00,69.8,62.3,29.99,North,0,1.0,6.0,77,0.00,,,0.00,Wunderground PWS Mod,2013-09-06 05:55:00,
2013-09-06 01:58:00,63.5,63.2,30.01,North,355,1.0,1.0,99,0.00,,,0.00,Wunderground PWS Mod,2013-09-06 05:58:00,
2013-09-06 02:00:00,69.8,62.3,29.99,North,0,1.0,6.0,77,0.00,,,0.00,Wunderground PWS Mod,2013-09-06 06:00:00,
2013-09-06 02:05:00,69.8,62.3,29.99,North,0,1.0,6.0,77,0.00,,,0.00,Wunderground PWS Mod,2013-09-06 06:05:00,
2013-09-06 02:08:00,65.0,63.5,30.01,North,355,1.0,2.0,95,0.00,,,0.00,Wunderground PWS Mod,2013-09-06 06:08:00,
2013-09-06 02:10:00,69.8,62.3,29.99,North,0,1.0,6.0,77,0.00,,,0.00,Wunderground PWS Mod,2013-09-06 06:10:00,
2013-09-06 02:15:00,68.8,62.0,30.00,North,0,0.0,4.0,79,0.00,,,0.00,Wunderground PWS Mod,2013-09-06 06:15:00,
2013-09-06 02:18:00,67.1,62.4,30.00,NNW,347,0.0,3.0,85,0.00,,,0.00,Wunderground PWS Mod,2013-09-06 06:18:00,
2013-09-06 02:20:00,68.8,62.0,30.00,North,0,0.0,4.0,79,0.00,,,0.00,Wunderground PWS Mod,2013-09-06 06:20:00,
2013-09-06 02:25:00,68.8,62.0,30.00,North,0,0.0,4.0,79,0.00,,,0.00,Wunderground PWS Mod,2013-09-06 06:25:00,
2013-09-06 02:28:00,68.6,61.8,30.00,NNE,15,2.0,3.0,79,0.00,,,0.00,Wunderground PWS Mod,2013-09-06 06:28:00,
2013-09-06 02:30:00,68.8,62.0,30.00,North,0,0.0,4.0,79,0.00,,,0.00,Wunderground PWS Mod,2013-09-06 06:30:00,
2013-09-06 02:35:00,68.8,62.0,30.00,North,0,0.0,4.0,79,0.00,,,0.00,Wunderground PWS Mod,2013-09-06 06:35:00,
2013-09-06 02:38:00,69.4,61.9,30.00,North,355,3.0,3.0,77,0.00,,,0.00,Wunderground PWS Mod,2013-09-06 06:38:00,
2013-09-06 02:40:00,68.8,62.0,30.00,North,0,0.0,4.0,79,0.00,,,0.00,Wunderground PWS Mod,2013-09-06 06:40:00,
2013-09-06 02:45:00,67.9,62.2,30.00,North,0,0.0,2.0,82,0.00,,,0.00,Wunderground PWS Mod,2013-09-06 06:45:00,
2013-09-06 02:49:00,69.9,62.4,30.00,NNE,19,2.0,3.0,77,0.00,,,0.00,Wunderground PWS Mod,2013-09-06 06:49:00,
2013-09-06 02:50:00,67.9,62.2,30.00,North,0,0.0,2.0,82,0.00,,,0.00,Wunderground PWS Mod,2013-09-06 06:50:00,
2013-09-06 02:55:00,67.9,62.2,30.00,North,0,0.0,2.0,82,0.00,,,0.00,Wunderground PWS Mod,2013-09-06 06:55:00,
2013-09-06 02:58:00,69.9,62.0,30.00,North,349,0.0,2.0,76,0.00,,,0.00,Wunderground PWS Mod,2013-09-06 06:58:00,
2013-09-06 03:00:00,67.9,62.2,30.00,North,0,0.0,2.0,82,0.00,,,0.00,Wunderground PWS Mod,2013-09-06 07:00:00,
2013-09-06 03:05:00,67.9,62.2,30.00,North,0,0.0,2.0,82,0.00,,,0.00,Wunderground PWS Mod,2013-09-06 07:05:00,
2013-09-06 03:08:00,69.6,62.1,29.99,North,350,1.0,2.0,77,0.00,,,0.00,Wunderground PWS Mod,2013-09-06 07:08:00,
2013-09-06 03:10:00,67.9,62.2,30.00,North,0,0.0,2.0,82,0.00,,,0.00,Wunderground PWS Mod,2013-09-06 07:10:00,
2013-09-06 03:15:00,67.6,61.9,30.01,North,0,0.0,4.0,82,0.00,,,0.00,Wunderground PWS Mod,2013-09-06 07:15:00,
2013-09-06 03:18:00,69.4,62.2,29.99,North,350,0.0,2.0,78,0.00,,,0.00,Wunderground PWS Mod,2013-09-06 07:18:00,
2013-09-06 03:20:00,67.6,61.9,30.01,North,0,0.0,4.0,82,0.00,,,0.00,Wunderground PWS Mod,2013-09-06 07:20:00,
2013-09-06 03:24:00,69.3,62.5,29.99,North,350,0.0,2.0,79,0.00,,,0.00,Wunderground PWS Mod,2013-09-06 07:24:00,
2013-09-06 03:25:00,67.6,61.9,30.01,North,0,0.0,4.0,82,0.00,,,0.00,Wunderground PWS Mod,2013-09-06 07:25:00,
2013-09-06 03:30:00,67.6,61.9,30.01,North,0,0.0,4.0,82,0.00,,,0.00,Wunderground PWS Mod,2013-09-06 07:30:00,
2013-09-06 03:33:00,68.8,62.4,30.00,North,350,0.0,2.0,80,0.00,,,0.00,Wunderground PWS Mod,2013-09-06 07:33:00,
2013-09-06 03:35:00,67.6,61.9,30.01,North,0,0.0,4.0,82,0.00,,,0.00,Wunderground PWS Mod,2013-09-06 07:35:00,
2013-09-06 03:40:00,67.6,61.9,30.01,North,0,0.0,4.0,82,0.00,,,0.00,Wunderground PWS Mod,2013-09-06 07:40:00,
2013-09-06 03:43:00,68.4,62.0,30.00,North,350,0.0,2.0,80,0.00,,,0.00,Wunderground PWS Mod,2013-09-06 07:43:00,
2013-09-06 03:45:00,67.4,61.7,30.01,North,0,0.0,7.0,82,0.00,,,0.00,Wunderground PWS Mod,2013-09-06 07:45:00,
2013-09-06 03:50:00,67.4,61.7,30.01,North,0,0.0,7.0,82,0.00,,,0.00,Wunderground PWS Mod,2013-09-06 07:50:00,
2013-09-06 03:54:00,68.1,62.0,30.00,North,350,1.0,1.0,81,0.00,,,0.00,Wunderground PWS Mod,2013-09-06 07:54:00,
2013-09-06 03:55:00,67.4,61.7,30.01,North,0,0.0,7.0,82,0.00,,,0.00,Wunderground PWS Mod,2013-09-06 07:55:00,
2013-09-06 04:00:00,67.4,61.7,30.01,North,0,0.0,7.0,82,0.00,,,0.00,Wunderground PWS Mod,2013-09-06 08:00:00,
2013-09-06 04:03:00,67.9,62.2,30.00,North,350,0.0,1.0,82,0.00,,,0.00,Wunderground PWS Mod,2013-09-06 08:03:00,
2013-09-06 04:05:00,67.4,61.7,30.01,North,0,0.0,7.0,82,0.00,,,0.00,Wunderground PWS Mod,2013-09-06 08:05:00,
2013-09-06 04:08:00,67.8,62.1,30.00,North,350,0.0,1.0,82,0.00,,,0.00,Wunderground PWS Mod,2013-09-06 08:08:00,
2013-09-06 04:10:00,67.4,61.7,30.01,North,0,0.0,7.0,82,0.00,,,0.00,Wunderground PWS Mod,2013-09-06 08:10:00,
2013-09-06 04:15:00,67.8,61.8,30.02,North,0,1.0,6.0,81,0.00,,,0.00,Wunderground PWS Mod,2013-09-06 08:15:00,
2013-09-06 04:18:00,67.8,62.1,30.00,North,350,0.0,1.0,82,0.00,,,0.00,Wunderground PWS Mod,2013-09-06 08:18:00,
2013-09-06 04:20:00,67.8,61.8,30.02,North,0,1.0,6.0,81,0.00,,,0.00,Wunderground PWS Mod,2013-09-06 08:20:00,
2013-09-06 04:25:00,67.8,61.8,30.02,North,0,1.0,6.0,81,0.00,,,0.00,Wunderground PWS Mod,2013-09-06 08:25:00,
2013-09-06 04:29:00,67.6,61.9,30.00,North,350,0.0,1.0,82,0.00,,,0.00,Wunderground PWS Mod,2013-09-06 08:29:00,
2013-09-06 04:30:00,67.8,61.8,30.02,North,0,1.0,6.0,81,0.00,,,0.00,Wunderground PWS Mod,2013-09-06 08:30:00,
2013-09-06 04:35:00,67.8,61.8,30.02,North,0,1.0,6.0,81,0.00,,,0.00,Wunderground PWS Mod,2013-09-06 08:35:00,
2013-09-06 04:38:00,67.4,62.1,30.01,North,350,0.0,1.0,83,0.00,,,0.00,Wunderground PWS Mod,2013-09-06 08:38:00,
2013-09-06 04:40:00,67.8,61.8,30.02,North,0,1.0,6.0,81,0.00,,,0.00,Wunderground PWS Mod,2013-09-06 08:40:00,
2013-09-06 04:45:00,67.4,61.7,30.02,North,0,1.0,7.0,82,0.00,,,0.00,Wunderground PWS Mod,2013-09-06 08:45:00,
2013-09-06 04:48:00,67.4,62.1,30.01,North,350,0.0,1.0,83,0.00,,,0.00,Wunderground PWS Mod,2013-09-06 08:48:00,
2013-09-06 04:50:00,67.4,61.7,30.02,North,0,1.0,7.0,82,0.00,,,0.00,Wunderground PWS Mod,2013-09-06 08:50:00,
2013-09-06 04:55:00,67.4,61.7,30.02,North,0,1.0,7.0,82,0.00,,,0.00,Wunderground PWS Mod,2013-09-06 08:55:00,
2013-09-06 04:59:00,67.4,61.7,30.01,NNW,348,0.0,0.0,82,0.00,,,0.00,Wunderground PWS Mod,2013-09-06 08:59:00,
2013-09-06 05:00:00,67.4,61.7,30.02,North,0,1.0,7.0,82,0.00,,,0.00,Wunderground PWS Mod,2013-09-06 09:00:00,
2013-09-06 05:05:00,67.4,61.7,30.02,North,0,1.0,7.0,82,0.00,,,0.00,Wunderground PWS Mod,2013-09-06 09:05:00,
2013-09-06 05:08:00,67.6,61.9,30.01,NNW,348,0.0,0.0,82,0.00,,,0.00,Wunderground PWS Mod,2013-09-06 09:08:00,
2013-09-06 05:10:00,67.4,61.7,30.02,North,0,1.0,7.0,82,0.00,,,0.00,Wunderground PWS Mod,2013-09-06 09:10:00,
2013-09-06 05:14:00,67.6,61.9,30.01,NNW,347,2.0,2.0,82,0.00,,,0.00,Wunderground PWS Mod,2013-09-06 09:14:00,
2013-09-06 05:15:00,66.6,61.6,30.03,North,0,0.0,4.0,84,0.00,,,0.00,Wunderground PWS Mod,2013-09-06 09:15:00,
2013-09-06 05:20:00,66.6,61.6,30.03,North,0,0.0,4.0,84,0.00,,,0.00,Wunderground PWS Mod,2013-09-06 09:20:00,
2013-09-06 05:24:00,67.6,61.9,30.02,North,355,0.0,2.0,82,0.00,,,0.00,Wunderground PWS Mod,2013-09-06 09:24:00,
2013-09-06 05:25:00,66.6,61.6,30.03,North,0,0.0,4.0,84,0.00,,,0.00,Wunderground PWS Mod,2013-09-06 09:25:00,
2013-09-06 05:30:00,66.6,61.6,30.03,North,0,0.0,4.0,84,0.00,,,0.00,Wunderground PWS Mod,2013-09-06 09:30:00,
2013-09-06 05:35:00,67.8,61.8,30.02,North,5,0.0,5.0,81,0.00,,,0.00,Wunderground PWS Mod,2013-09-06 09:35:00,
2013-09-06 05:40:00,66.6,61.6,30.03,North,0,0.0,4.0,84,0.00,,,0.00,Wunderground PWS Mod,2013-09-06 09:40:00,
2013-09-06 05:44:00,67.8,61.8,30.02,NNW,340,0.0,5.0,81,0.00,,,0.00,Wunderground PWS Mod,2013-09-06 09:44:00,
2013-09-06 05:45:00,65.8,61.2,30.04,North,0,0.0,3.0,85,0.00,,,0.00,Wunderground PWS Mod,2013-09-06 09:45:00,
2013-09-06 05:50:00,65.8,61.2,30.04,North,0,0.0,3.0,85,0.00,,,0.00,Wunderground PWS Mod,2013-09-06 09:50:00,
2013-09-06 05:54:00,67.6,61.9,30.02,NNE,17,0.0,0.0,82,0.00,,,0.00,Wunderground PWS Mod,2013-09-06 09:54:00,
2013-09-06 05:55:00,65.8,61.2,30.04,North,0,0.0,3.0,85,0.00,,,0.00,Wunderground PWS Mod,2013-09-06 09:55:00,
2013-09-06 06:00:00,65.8,61.2,30.04,North,0,0.0,3.0,85,0.00,,,0.00,Wunderground PWS Mod,2013-09-06 10:00:00,
2013-09-06 06:05:00,67.4,61.7,30.02,North,5,1.0,2.0,82,0.00,,,0.00,Wunderground PWS Mod,2013-09-06 10:05:00,
2013-09-06 06:10:00,65.8,61.2,30.04,North,0,0.0,3.0,85,0.00,,,0.00,Wunderground PWS Mod,2013-09-06 10:10:00,
2013-09-06 06:14:00,67.1,61.8,30.02,North,355,0.0,2.0,83,0.00,,,0.00,Wunderground PWS Mod,2013-09-06 10:14:00,
2013-09-06 06:15:00,65.3,61.0,30.06,North,0,0.0,3.0,86,0.00,,,0.00,Wunderground PWS Mod,2013-09-06 10:15:00,
2013-09-06 06:20:00,65.3,61.0,30.06,North,0,0.0,3.0,86,0.00,,,0.00,Wunderground PWS Mod,2013-09-06 10:20:00,
2013-09-06 06:24:00,66.8,61.8,30.03,North,360,0.0,2.0,84,0.00,,,0.00,Wunderground PWS Mod,2013-09-06 10:24:00,
2013-09-06 06:25:00,65.3,61.0,30.06,North,0,0.0,3.0,86,0.00,,,0.00,Wunderground PWS Mod,2013-09-06 10:25:00,
2013-09-06 06:30:00,65.3,61.0,30.06,North,0,0.0,3.0,86,0.00,,,0.00,Wunderground PWS Mod,2013-09-06 10:30:00,
2013-09-06 06:34:00,66.4,61.4,30.03,North,360,0.0,2.0,84,0.00,,,0.00,Wunderground PWS Mod,2013-09-06 10:34:00,
2013-09-06 06:35:00,65.3,61.0,30.06,North,0,0.0,3.0,86,0.00,,,0.00,Wunderground PWS Mod,2013-09-06 10:35:00,
2013-09-06 06:40:00,65.3,61.0,30.06,North,0,0.0,3.0,86,0.00,,,0.00,Wunderground PWS Mod,2013-09-06 10:40:00,
2013-09-06 06:44:00,66.3,61.7,30.03,North,360,0.0,2.0,85,0.00,,,0.00,Wunderground PWS Mod,2013-09-06 10:44:00,
2013-09-06 06:45:00,66.1,60.8,30.06,North,0,0.0,3.0,83,0.00,,,0.00,Wunderground PWS Mod,2013-09-06 10:45:00,
2013-09-06 06:50:00,66.1,60.8,30.06,North,0,0.0,3.0,83,0.00,,,0.00,Wunderground PWS Mod,2013-09-06 10:50:00,
2013-09-06 06:54:00,66.0,61.4,30.04,North,355,0.0,0.0,85,0.00,,,0.00,Wunderground PWS Mod,2013-09-06 10:54:00,
2013-09-06 06:55:00,66.1,60.8,30.06,North,0,0.0,3.0,83,0.00,,,0.00,Wunderground PWS Mod,2013-09-06 10:55:00,
2013-09-06 07:00:00,66.1,60.8,30.06,North,0,0.0,3.0,83,0.00,,,0.00,Wunderground PWS Mod,2013-09-06 11:00:00,
2013-09-06 07:04:00,65.8,61.2,30.04,North,355,0.0,0.0,85,0.00,,,0.00,Wunderground PWS Mod,2013-09-06 11:04:00,
2013-09-06 07:05:00,66.1,60.8,30.06,North,0,0.0,3.0,83,0.00,,,0.00,Wunderground PWS Mod,2013-09-06 11:05:00,
2013-09-06 07:09:00,65.8,61.2,30.04,North,355,0.0,0.0,85,0.00,,,0.00,Wunderground PWS Mod,2013-09-06 11:09:00,
2013-09-06 07:10:00,66.1,60.8,30.06,North,0,0.0,3.0,83,0.00,,,0.00,Wunderground PWS Mod,2013-09-06 11:10:00,
2013-09-06 07:15:00,67.3,60.2,30.07,North,0,1.0,6.0,78,0.00,,,0.00,Wunderground PWS Mod,2013-09-06 11:15:00,
2013-09-06 07:19:00,65.5,61.2,30.05,North,355,0.0,0.0,86,0.00,,,0.00,Wunderground PWS Mod,2013-09-06 11:19:00,
2013-09-06 07:20:00,67.3,60.2,30.07,North,0,1.0,6.0,78,0.00,,,0.00,Wunderground PWS Mod,2013-09-06 11:20:00,
2013-09-06 07:25:00,67.3,60.2,30.07,North,0,1.0,6.0,78,0.00,,,0.00,Wunderground PWS Mod,2013-09-06 11:25:00,
2013-09-06 07:29:00,65.3,61.0,30.05,North,351,0.0,0.0,86,0.00,,,0.00,Wunderground PWS Mod,2013-09-06 11:29:00,
2013-09-06 07:30:00,67.3,60.2,30.07,North,0,1.0,6.0,78,0.00,,,0.00,Wunderground PWS Mod,2013-09-06 11:30:00,
2013-09-06 07:35:00,67.3,60.2,30.07,North,0,1.0,6.0,78,0.00,,,0.00,Wunderground PWS Mod,2013-09-06 11:35:00,
2013-09-06 07:39:00,65.5,61.2,30.06,North,5,1.0,1.0,86,0.00,,,0.00,Wunderground PWS Mod,2013-09-06 11:39:00,
2013-09-06 07:40:00,67.3,60.2,30.07,North,0,1.0,6.0,78,0.00,,,0.00,Wunderground PWS Mod,2013-09-06 11:40:00,
2013-09-06 07:45:00,69.6,59.0,30.08,North,0,1.0,7.0,69,0.00,,,0.00,Wunderground PWS Mod,2013-09-06 11:45:00,
2013-09-06 07:49:00,65.6,61.0,30.06,North,351,0.0,1.0,85,0.00,,,0.00,Wunderground PWS Mod,2013-09-06 11:49:00,
2013-09-06 07:50:00,69.6,59.0,30.08,North,0,1.0,7.0,69,0.00,,,0.00,Wunderground PWS Mod,2013-09-06 11:50:00,
2013-09-06 07:55:00,69.6,59.0,30.08,North,0,1.0,7.0,69,0.00,,,0.00,Wunderground PWS Mod,2013-09-06 11:55:00,
2013-09-06 07:59:00,66.0,60.7,30.06,North,355,0.0,0.0,83,0.00,,,0.00,Wunderground PWS Mod,2013-09-06 11:59:00,
2013-09-06 08:00:00,69.6,59.0,30.08,North,0,1.0,7.0,69,0.00,,,0.00,Wunderground PWS Mod,2013-09-06 12:00:00,
2013-09-06 08:05:00,69.6,59.0,30.08,North,0,1.0,7.0,69,0.00,,,0.00,Wunderground PWS Mod,2013-09-06 12:05:00,
2013-09-06 08:09:00,66.4,60.4,30.06,NNE,12,0.0,0.0,81,0.00,,,0.00,Wunderground PWS Mod,2013-09-06 12:09:00,
2013-09-06 08:10:00,69.6,59.0,30.08,North,0,1.0,7.0,69,0.00,,,0.00,Wunderground PWS Mod,2013-09-06 12:10:00,
2013-09-06 08:15:00,72.1,58.8,30.09,NE,40,1.0,7.0,63,0.00,,,0.00,Wunderground PWS Mod,2013-09-06 12:15:00,
2013-09-06 08:19:00,66.6,59.9,30.07,North,5,1.0,1.0,79,0.00,,,0.00,Wunderground PWS Mod,2013-09-06 12:19:00,
2013-09-06 08:20:00,72.1,58.8,30.09,NE,40,1.0,7.0,63,0.00,,,0.00,Wunderground PWS Mod,2013-09-06 12:20:00,
2013-09-06 08:25:00,72.1,58.8,30.09,NE,40,1.0,7.0,63,0.00,,,0.00,Wunderground PWS Mod,2013-09-06 12:25:00,
2013-09-06 08:29:00,67.1,60.0,30.07,North,5,1.0,3.0,78,0.00,,,0.00,Wunderground PWS Mod,2013-09-06 12:29:00,
2013-09-06 08:30:00,72.1,58.8,30.09,NE,40,1.0,7.0,63,0.00,,,0.00,Wunderground PWS Mod,2013-09-06 12:30:00,
2013-09-06 08:35:00,72.1,58.8,30.09,NE,40,1.0,7.0,63,0.00,,,0.00,Wunderground PWS Mod,2013-09-06 12:35:00,
2013-09-06 08:39:00,67.8,59.6,30.07,NNE,18,1.0,3.0,75,0.00,,,0.00,Wunderground PWS Mod,2013-09-06 12:39:00,
2013-09-06 08:40:00,72.1,58.8,30.09,NE,40,1.0,7.0,63,0.00,,,0.00,Wunderground PWS Mod,2013-09-06 12:40:00,
2013-09-06 08:45:00,73.7,59.4,30.09,SSE,150,1.0,6.0,61,0.00,,,0.00,Wunderground PWS Mod,2013-09-06 12:45:00,
2013-09-06 08:49:00,68.4,59.0,30.08,ENE,65,0.0,3.0,72,0.00,,,0.00,Wunderground PWS Mod,2013-09-06 12:49:00,
2013-09-06 08:50:00,73.7,59.4,30.09,SSE,150,1.0,6.0,61,0.00,,,0.00,Wunderground PWS Mod,2013-09-06 12:50:00,
2013-09-06 08:55:00,73.7,59.4,30.09,SSE,150,1.0,6.0,61,0.00,,,0.00,Wunderground PWS Mod,2013-09-06 12:55:00,
2013-09-06 08:59:00,69.4,59.2,30.08,ENE,74,0.0,3.0,70,0.00,,,0.00,Wunderground PWS Mod,2013-09-06 12:59:00,
2013-09-06 09:00:00,73.7,59.4,30.09,SSE,150,1.0,6.0,61,0.00,,,0.00,Wunderground PWS Mod,2013-09-06 13:00:00,
2013-09-06 09:04:00,70.1,59.9,30.08,ENE,74,0.0,3.0,70,0.00,,,0.00,Wunderground PWS Mod,2013-09-06 13:04:00,
2013-09-06 09:05:00,73.7,59.4,30.09,SSE,150,1.0,6.0,61,0.00,,,0.00,Wunderground PWS Mod,2013-09-06 13:05:00,
2013-09-06 09:09:00,70.8,59.3,30.08,North,5,2.0,3.0,67,0.00,,,0.00,Wunderground PWS Mod,2013-09-06 13:09:00,
2013-09-06 09:10:00,73.7,59.4,30.09,SSE,150,1.0,6.0,61,0.00,,,0.00,Wunderground PWS Mod,2013-09-06 13:10:00,
2013-09-06 09:14:00,71.1,58.7,30.08,NE,46,0.0,3.0,65,0.00,,,0.00,Wunderground PWS Mod,2013-09-06 13:14:00,
2013-09-06 09:15:00,75.8,61.4,30.09,NE,40,1.0,9.0,61,0.00,,,0.00,Wunderground PWS Mod,2013-09-06 13:15:00,
2013-09-06 09:20:00,75.8,61.4,30.09,NE,40,1.0,9.0,61,0.00,,,0.00,Wunderground PWS Mod,2013-09-06 13:20:00,
2013-09-06 09:24:00,71.6,58.8,30.08,East,91,0.0,5.0,64,0.00,,,0.00,Wunderground PWS Mod,2013-09-06 13:24:00,
2013-09-06 09:25:00,75.8,61.4,30.09,NE,40,1.0,9.0,61,0.00,,,0.00,Wunderground PWS Mod,2013-09-06 13:25:00,
2013-09-06 09:30:00,75.8,61.4,30.09,NE,40,1.0,9.0,61,0.00,,,0.00,Wunderground PWS Mod,2013-09-06 13:30:00,
2013-09-06 09:34:00,72.3,58.5,30.09,NNW,334,1.0,5.0,62,0.00,,,0.00,Wunderground PWS Mod,2013-09-06 13:34:00,
2013-09-06 09:35:00,75.8,61.4,30.09,NE,40,1.0,9.0,61,0.00,,,0.00,Wunderground PWS Mod,2013-09-06 13:35:00,
2013-09-06 09:40:00,75.8,61.4,30.09,NE,40,1.0,9.0,61,0.00,,,0.00,Wunderground PWS Mod,2013-09-06 13:40:00,
2013-09-06 09:45:00,76.7,60.3,30.09,North,0,2.0,7.0,57,0.00,,,0.00,Wunderground PWS Mod,2013-09-06 13:45:00,
2013-09-06 09:50:00,76.7,60.3,30.09,North,0,2.0,7.0,57,0.00,,,0.00,Wunderground PWS Mod,2013-09-06 13:50:00,
2013-09-06 09:54:00,73.2,58.9,30.09,NNE,25,2.0,2.0,61,0.00,,,0.00,Wunderground PWS Mod,2013-09-06 13:54:00,
2013-09-06 09:55:00,76.7,60.3,30.09,North,0,2.0,7.0,57,0.00,,,0.00,Wunderground PWS Mod,2013-09-06 13:55:00,
2013-09-06 09:59:00,73.5,60.1,30.09,NNW,345,4.0,4.0,63,0.00,,,0.00,Wunderground PWS Mod,2013-09-06 13:59:00,
2013-09-06 10:00:00,76.7,60.3,30.09,North,0,2.0,7.0,57,0.00,,,0.00,Wunderground PWS Mod,2013-09-06 14:00:00,
2013-09-06 10:05:00,76.7,60.3,30.09,North,0,2.0,7.0,57,0.00,,,0.00,Wunderground PWS Mod,2013-09-06 14:05:00,
2013-09-06 10:09:00,74.0,58.8,30.09,ESE,117,0.0,4.0,59,0.00,,,0.00,Wunderground PWS Mod,2013-09-06 14:09:00,
2013-09-06 10:10:00,76.7,60.3,30.09,North,0,2.0,7.0,57,0.00,,,0.00,Wunderground PWS Mod,2013-09-06 14:10:00,
2013-09-06 10:15:00,78.5,61.0,30.09,NE,40,1.0,8.0,55,0.00,,,0.00,Wunderground PWS Mod,2013-09-06 14:15:00,
2013-09-06 10:20:00,78.5,61.0,30.09,NE,40,1.0,8.0,55,0.00,,,0.00,Wunderground PWS Mod,2013-09-06 14:20:00,
2013-09-06 10:25:00,78.5,61.0,30.09,NE,40,1.0,8.0,55,0.00,,,0.00,Wunderground PWS Mod,2013-09-06 14:25:00,
2013-09-06 10:30:00,78.5,61.0,30.09,NE,40,1.0,8.0,55,0.00,,,0.00,Wunderground PWS Mod,2013-09-06 14:30:00,
2013-09-06 10:35:00,78.5,61.0,30.09,NE,40,1.0,8.0,55,0.00,,,0.00,Wunderground PWS Mod,2013-09-06 14:35:00,
2013-09-06 10:40:00,78.5,61.0,30.09,NE,40,1.0,8.0,55,0.00,,,0.00,Wunderground PWS Mod,2013-09-06 14:40:00,
2013-09-06 10:45:00,79.2,63.1,30.09,North,0,2.0,10.0,58,0.00,,,0.00,Wunderground PWS Mod,2013-09-06 14:45:00,
2013-09-06 10:50:00,79.2,63.1,30.09,North,0,2.0,10.0,58,0.00,,,0.00,Wunderground PWS Mod,2013-09-06 14:50:00,
2013-09-06 10:55:00,79.2,63.1,30.09,North,0,2.0,10.0,58,0.00,,,0.00,Wunderground PWS Mod,2013-09-06 14:55:00,
2013-09-06 11:00:00,79.2,63.1,30.09,North,0,2.0,10.0,58,0.00,,,0.00,Wunderground PWS Mod,2013-09-06 15:00:00,
2013-09-06 11:05:00,79.2,63.1,30.09,North,0,2.0,10.0,58,0.00,,,0.00,Wunderground PWS Mod,2013-09-06 15:05:00,
2013-09-06 11:10:00,79.2,63.1,30.09,North,0,2.0,10.0,58,0.00,,,0.00,Wunderground PWS Mod,2013-09-06 15:10:00,
2013-09-06 11:15:00,79.9,61.2,30.08,NE,40,2.0,11.0,53,0.00,,,0.00,Wunderground PWS Mod,2013-09-06 15:15:00,
2013-09-06 11:20:00,79.9,61.2,30.08,NE,40,2.0,11.0,53,0.00,,,0.00,Wunderground PWS Mod,2013-09-06 15:20:00,
2013-09-06 11:25:00,79.9,61.2,30.08,NE,40,2.0,11.0,53,0.00,,,0.00,Wunderground PWS Mod,2013-09-06 15:25:00,
2013-09-06 11:30:00,79.9,61.2,30.08,NE,40,2.0,11.0,53,0.00,,,0.00,Wunderground PWS Mod,2013-09-06 15:30:00,
2013-09-06 11:35:00,79.9,61.2,30.08,NE,40,2.0,11.0,53,0.00,,,0.00,Wunderground PWS Mod,2013-09-06 15:35:00,
2013-09-06 11:40:00,79.9,61.2,30.08,NE,40,2.0,11.0,53,0.00,,,0.00,Wunderground PWS Mod,2013-09-06 15:40:00,
2013-09-06 11:45:00,80.1,62.5,30.07,NE,50,2.0,10.0,55,0.00,,,0.00,Wunderground PWS Mod,2013-09-06 15:45:00,
2013-09-06 11:50:00,80.1,62.5,30.07,NE,50,2.0,10.0,55,0.00,,,0.00,Wunderground PWS Mod,2013-09-06 15:50:00,
2013-09-06 11:55:00,80.1,62.5,30.07,NE,50,2.0,10.0,55,0.00,,,0.00,Wunderground PWS Mod,2013-09-06 15:55:00,
2013-09-06 12:00:00,80.1,62.5,30.07,NE,50,2.0,10.0,55,0.00,,,0.00,Wunderground PWS Mod,2013-09-06 16:00:00,
2013-09-06 12:04:00,79.4,61.8,30.09,NNE,17,2.0,10.0,55,0.00,,,0.00,Wunderground PWS Mod,2013-09-06 16:04:00,
2013-09-06 12:05:00,80.1,62.5,30.07,NE,50,2.0,10.0,55,0.00,,,0.00,Wunderground PWS Mod,2013-09-06 16:05:00,
2013-09-06 12:09:00,79.2,61.1,30.09,NNW,345,7.0,10.0,54,0.00,,,0.00,Wunderground PWS Mod,2013-09-06 16:09:00,
2013-09-06 12:10:00,80.1,62.5,30.07,NE,50,2.0,10.0,55,0.00,,,0.00,Wunderground PWS Mod,2013-09-06 16:10:00,
2013-09-06 12:14:00,79.4,62.8,30.09,NNE,13,0.0,10.0,57,0.00,,,0.00,Wunderground PWS Mod,2013-09-06 16:14:00,
2013-09-06 12:15:00,81.1,62.9,30.07,NE,50,1.0,9.0,54,0.00,,,0.00,Wunderground PWS Mod,2013-09-06 16:15:00,
2013-09-06 12:19:00,79.4,61.8,30.09,ESE,102,2.0,10.0,55,0.00,,,0.00,Wunderground PWS Mod,2013-09-06 16:19:00,
2013-09-06 12:20:00,81.1,62.9,30.07,NE,50,1.0,9.0,54,0.00,,,0.00,Wunderground PWS Mod,2013-09-06 16:20:00,
2013-09-06 12:25:00,81.1,62.9,30.07,NE,50,1.0,9.0,54,0.00,,,0.00,Wunderground PWS Mod,2013-09-06 16:25:00,
2013-09-06 12:29:00,79.9,62.8,30.09,ENE,78,0.0,10.0,56,0.00,,,0.00,Wunderground PWS Mod,2013-09-06 16:29:00,
2013-09-06 12:30:00,81.1,62.9,30.07,NE,50,1.0,9.0,54,0.00,,,0.00,Wunderground PWS Mod,2013-09-06 16:30:00,
2013-09-06 12:34:00,79.9,62.8,30.08,North,5,3.0,10.0,56,0.00,,,0.00,Wunderground PWS Mod,2013-09-06 16:34:00,
2013-09-06 12:35:00,81.1,62.9,30.07,NE,50,1.0,9.0,54,0.00,,,0.00,Wunderground PWS Mod,2013-09-06 16:35:00,
2013-09-06 12:39:00,79.9,63.3,30.08,North,360,7.0,10.0,57,0.00,,,0.00,Wunderground PWS Mod,2013-09-06 16:39:00,
2013-09-06 12:40:00,81.1,62.9,30.07,NE,50,1.0,9.0,54,0.00,,,0.00,Wunderground PWS Mod,2013-09-06 16:40:00,
2013-09-06 12:44:00,80.1,62.0,30.08,East,82,4.0,10.0,54,0.00,,,0.00,Wunderground PWS Mod,2013-09-06 16:44:00,
2013-09-06 12:45:00,81.2,61.4,30.06,NE,50,2.0,11.0,51,0.00,,,0.00,Wunderground PWS Mod,2013-09-06 16:45:00,
2013-09-06 12:49:00,79.9,60.7,30.07,ESE,117,2.0,10.0,52,0.00,,,0.00,Wunderground PWS Mod,2013-09-06 16:49:00,
2013-09-06 12:50:00,81.2,61.4,30.06,NE,50,2.0,11.0,51,0.00,,,0.00,Wunderground PWS Mod,2013-09-06 16:50:00,
2013-09-06 12:54:00,79.9,61.8,30.07,ESE,115,3.0,10.0,54,0.00,,,0.00,Wunderground PWS Mod,2013-09-06 16:54:00,
2013-09-06 12:55:00,81.2,61.4,30.06,NE,50,2.0,11.0,51,0.00,,,0.00,Wunderground PWS Mod,2013-09-06 16:55:00,
2013-09-06 13:00:00,81.2,61.4,30.06,NE,50,2.0,11.0,51,0.00,,,0.00,Wunderground PWS Mod,2013-09-06 17:00:00,
2013-09-06 13:04:00,80.1,62.0,30.07,NNW,344,1.0,10.0,54,0.00,,,0.00,Wunderground PWS Mod,2013-09-06 17:04:00,
2013-09-06 13:05:00,81.2,61.4,30.06,NE,50,2.0,11.0,51,0.00,,,0.00,Wunderground PWS Mod,2013-09-06 17:05:00,
2013-09-06 13:10:00,81.2,61.4,30.06,NE,50,2.0,11.0,51,0.00,,,0.00,Wunderground PWS Mod,2013-09-06 17:10:00,
2013-09-06 13:14:00,80.9,62.2,30.07,ESE,107,0.0,10.0,53,0.00,,,0.00,Wunderground PWS Mod,2013-09-06 17:14:00,
2013-09-06 13:15:00,82.4,62.5,30.04,NE,40,1.0,9.0,51,0.00,,,0.00,Wunderground PWS Mod,2013-09-06 17:15:00,
2013-09-06 13:20:00,82.4,62.5,30.04,NE,40,1.0,9.0,51,0.00,,,0.00,Wunderground PWS Mod,2013-09-06 17:20:00,
2013-09-06 13:24:00,81.2,63.0,30.07,NE,56,1.0,10.0,54,0.00,,,0.00,Wunderground PWS Mod,2013-09-06 17:24:00,
2013-09-06 13:25:00,82.4,62.5,30.04,NE,40,1.0,9.0,51,0.00,,,0.00,Wunderground PWS Mod,2013-09-06 17:25:00,
2013-09-06 13:30:00,82.4,62.5,30.04,NE,40,1.0,9.0,51,0.00,,,0.00,Wunderground PWS Mod,2013-09-06 17:30:00,
2013-09-06 13:34:00,81.2,61.4,30.07,NNW,338,1.0,10.0,51,0.00,,,0.00,Wunderground PWS Mod,2013-09-06 17:34:00,
2013-09-06 13:35:00,82.4,62.5,30.04,NE,40,1.0,9.0,51,0.00,,,0.00,Wunderground PWS Mod,2013-09-06 17:35:00,
2013-09-06 13:40:00,82.4,62.5,30.04,NE,40,1.0,9.0,51,0.00,,,0.00,Wunderground PWS Mod,2013-09-06 17:40:00,
2013-09-06 13:44:00,81.1,63.4,30.07,East,96,0.0,10.0,55,0.00,,,0.00,Wunderground PWS Mod,2013-09-06 17:44:00,
2013-09-06 13:45:00,83.4,59.8,30.03,NE,40,1.0,7.0,45,0.00,,,0.00,Wunderground PWS Mod,2013-09-06 17:45:00,
2013-09-06 13:50:00,83.4,59.8,30.03,NE,40,1.0,7.0,45,0.00,,,0.00,Wunderground PWS Mod,2013-09-06 17:50:00,
2013-09-06 13:54:00,81.4,61.5,30.06,North,355,0.0,10.0,51,0.00,,,0.00,Wunderground PWS Mod,2013-09-06 17:54:00,
2013-09-06 13:55:00,83.4,59.8,30.03,NE,40,1.0,7.0,45,0.00,,,0.00,Wunderground PWS Mod,2013-09-06 17:55:00,
2013-09-06 13:59:00,81.2,63.0,30.06,ESE,103,0.0,10.0,54,0.00,,,0.00,Wunderground PWS Mod,2013-09-06 17:59:00,
2013-09-06 14:00:00,83.4,59.8,30.03,NE,40,1.0,7.0,45,0.00,,,0.00,Wunderground PWS Mod,2013-09-06 18:00:00,
2013-09-06 14:05:00,83.4,59.8,30.03,NE,40,1.0,7.0,45,0.00,,,0.00,Wunderground PWS Mod,2013-09-06 18:05:00,
2013-09-06 14:09:00,82.0,62.6,30.06,ENE,69,0.0,10.0,52,0.00,,,0.00,Wunderground PWS Mod,2013-09-06 18:09:00,
2013-09-06 14:10:00,83.4,59.8,30.03,NE,40,1.0,7.0,45,0.00,,,0.00,Wunderground PWS Mod,2013-09-06 18:10:00,
2013-09-06 14:15:00,83.2,63.2,30.02,SSE,150,2.0,10.0,51,0.00,,,0.00,Wunderground PWS Mod,2013-09-06 18:15:00,
2013-09-06 14:19:00,82.6,63.7,30.05,ENE,64,1.0,10.0,53,0.00,,,0.00,Wunderground PWS Mod,2013-09-06 18:19:00,
2013-09-06 14:20:00,83.2,63.2,30.02,SSE,150,2.0,10.0,51,0.00,,,0.00,Wunderground PWS Mod,2013-09-06 18:20:00,
2013-09-06 14:25:00,83.2,63.2,30.02,SSE,150,2.0,10.0,51,0.00,,,0.00,Wunderground PWS Mod,2013-09-06 18:25:00,
2013-09-06 14:29:00,82.4,62.5,30.05,East,84,0.0,10.0,51,0.00,,,0.00,Wunderground PWS Mod,2013-09-06 18:29:00,
2013-09-06 14:30:00,83.2,63.2,30.02,SSE,150,2.0,10.0,51,0.00,,,0.00,Wunderground PWS Mod,2013-09-06 18:30:00,
2013-09-06 14:34:00,82.6,60.9,30.04,NNE,28,2.0,10.0,48,0.00,,,0.00,Wunderground PWS Mod,2013-09-06 18:34:00,
2013-09-06 14:35:00,83.2,63.2,30.02,SSE,150,2.0,10.0,51,0.00,,,0.00,Wunderground PWS Mod,2013-09-06 18:35:00,
2013-09-06 14:40:00,83.2,63.2,30.02,SSE,150,2.0,10.0,51,0.00,,,0.00,Wunderground PWS Mod,2013-09-06 18:40:00,
2013-09-06 14:44:00,83.2,60.3,30.04,North,355,4.0,10.0,46,0.00,,,0.00,Wunderground PWS Mod,2013-09-06 18:44:00,
2013-09-06 14:45:00,83.4,61.1,30.01,SSE,150,2.0,8.0,47,0.00,,,0.00,Wunderground PWS Mod,2013-09-06 18:45:00,
2013-09-06 14:50:00,83.4,61.1,30.01,SSE,150,2.0,8.0,47,0.00,,,0.00,Wunderground PWS Mod,2013-09-06 18:50:00,
2013-09-06 14:54:00,83.0,61.3,30.03,East,87,0.0,10.0,48,0.00,,,0.00,Wunderground PWS Mod,2013-09-06 18:54:00,
2013-09-06 14:55:00,83.4,61.1,30.01,SSE,150,2.0,8.0,47,0.00,,,0.00,Wunderground PWS Mod,2013-09-06 18:55:00,
2013-09-06 15:00:00,83.4,61.1,30.01,SSE,150,2.0,8.0,47,0.00,,,0.00,Wunderground PWS Mod,2013-09-06 19:00:00,
2013-09-06 15:04:00,83.4,59.8,30.03,NNW,347,6.0,10.0,45,0.00,,,0.00,Wunderground PWS Mod,2013-09-06 19:04:00,
2013-09-06 15:05:00,83.4,61.1,30.01,SSE,150,2.0,8.0,47,0.00,,,0.00,Wunderground PWS Mod,2013-09-06 19:05:00,
2013-09-06 15:10:00,83.4,61.1,30.01,SSE,150,2.0,8.0,47,0.00,,,0.00,Wunderground PWS Mod,2013-09-06 19:10:00,
2013-09-06 15:14:00,82.6,59.1,30.03,ESE,119,5.0,10.0,45,0.00,,,0.00,Wunderground PWS Mod,2013-09-06 19:14:00,
2013-09-06 15:15:00,83.6,61.8,30.00,North,0,1.0,6.0,48,0.00,,,0.00,Wunderground PWS Mod,2013-09-06 19:15:00,
2013-09-06 15:20:00,83.6,61.8,30.00,North,0,1.0,6.0,48,0.00,,,0.00,Wunderground PWS Mod,2013-09-06 19:20:00,
2013-09-06 15:24:00,82.6,61.5,30.02,East,82,0.0,10.0,49,0.00,,,0.00,Wunderground PWS Mod,2013-09-06 19:24:00,
2013-09-06 15:25:00,83.6,61.8,30.00,North,0,1.0,6.0,48,0.00,,,0.00,Wunderground PWS Mod,2013-09-06 19:25:00,
2013-09-06 15:30:00,83.6,61.8,30.00,North,0,1.0,6.0,48,0.00,,,0.00,Wunderground PWS Mod,2013-09-06 19:30:00,
2013-09-06 15:34:00,83.4,61.1,30.02,NE,36,0.0,10.0,47,0.00,,,0.00,Wunderground PWS Mod,2013-09-06 19:34:00,
2013-09-06 15:35:00,83.6,61.8,30.00,North,0,1.0,6.0,48,0.00,,,0.00,Wunderground PWS Mod,2013-09-06 19:35:00,
2013-09-06 15:40:00,83.6,61.8,30.00,North,0,1.0,6.0,48,0.00,,,0.00,Wunderground PWS Mod,2013-09-06 19:40:00,
2013-09-06 15:44:00,83.6,61.8,30.02,North,349,3.0,10.0,48,0.00,,,0.00,Wunderground PWS Mod,2013-09-06 19:44:00,
2013-09-06 15:45:00,84.0,60.4,29.99,North,0,1.0,5.0,45,0.00,,,0.00,Wunderground PWS Mod,2013-09-06 19:45:00,
2013-09-06 15:49:00,83.6,61.8,30.00,NNW,342,5.0,10.0,48,0.00,,,0.00,Wunderground PWS Mod,2013-09-06 19:49:00,
2013-09-06 15:50:00,84.0,60.4,29.99,North,0,1.0,5.0,45,0.00,,,0.00,Wunderground PWS Mod,2013-09-06 19:50:00,
2013-09-06 15:55:00,84.0,60.4,29.99,North,0,1.0,5.0,45,0.00,,,0.00,Wunderground PWS Mod,2013-09-06 19:55:00,
2013-09-06 15:59:00,83.6,60.0,30.00,NNW,330,4.0,10.0,45,0.00,,,0.00,Wunderground PWS Mod,2013-09-06 19:59:00,
2013-09-06 16:00:00,84.0,60.4,29.99,North,0,1.0,5.0,45,0.00,,,0.00,Wunderground PWS Mod,2013-09-06 20:00:00,
2013-09-06 16:05:00,84.0,60.4,29.99,North,0,1.0,5.0,45,0.00,,,0.00,Wunderground PWS Mod,2013-09-06 20:05:00,
2013-09-06 16:09:00,83.6,61.2,30.01,East,80,0.0,10.0,47,0.00,,,0.00,Wunderground PWS Mod,2013-09-06 20:09:00,
2013-09-06 16:10:00,84.0,60.4,29.99,North,0,1.0,5.0,45,0.00,,,0.00,Wunderground PWS Mod,2013-09-06 20:10:00,
2013-09-06 16:15:00,83.8,60.8,29.99,SSE,150,1.0,6.0,46,0.00,,,0.00,Wunderground PWS Mod,2013-09-06 20:15:00,
2013-09-06 16:19:00,83.6,61.8,30.01,NNW,348,0.0,10.0,48,0.00,,,0.00,Wunderground PWS Mod,2013-09-06 20:19:00,
2013-09-06 16:20:00,83.8,60.8,29.99,SSE,150,1.0,6.0,46,0.00,,,0.00,Wunderground PWS Mod,2013-09-06 20:20:00,
2013-09-06 16:25:00,83.8,60.8,29.99,SSE,150,1.0,6.0,46,0.00,,,0.00,Wunderground PWS Mod,2013-09-06 20:25:00,
2013-09-06 16:29:00,83.8,60.8,30.01,NNW,336,3.0,10.0,46,0.00,,,0.00,Wunderground PWS Mod,2013-09-06 20:29:00,
2013-09-06 16:30:00,83.8,60.8,29.99,SSE,150,1.0,6.0,46,0.00,,,0.00,Wunderground PWS Mod,2013-09-06 20:30:00,
2013-09-06 16:34:00,83.6,60.0,30.00,NNW,336,2.0,10.0,45,0.00,,,0.00,Wunderground PWS Mod,2013-09-06 20:34:00,
2013-09-06 16:35:00,83.8,60.8,29.99,SSE,150,1.0,6.0,46,0.00,,,0.00,Wunderground PWS Mod,2013-09-06 20:35:00,
2013-09-06 16:40:00,83.8,60.8,29.99,SSE,150,1.0,6.0,46,0.00,,,0.00,Wunderground PWS Mod,2013-09-06 20:40:00,
2013-09-06 16:44:00,83.6,62.4,30.00,NNW,344,0.0,10.0,49,0.00,,,0.00,Wunderground PWS Mod,2013-09-06 20:44:00,
2013-09-06 16:45:00,83.2,61.5,29.99,SSE,150,1.0,5.0,48,0.00,,,0.00,Wunderground PWS Mod,2013-09-06 20:45:00,
2013-09-06 16:50:00,83.2,61.5,29.99,SSE,150,1.0,5.0,48,0.00,,,0.00,Wunderground PWS Mod,2013-09-06 20:50:00,
2013-09-06 16:54:00,84.1,60.5,30.00,NNE,27,0.0,10.0,45,0.00,,,0.00,Wunderground PWS Mod,2013-09-06 20:54:00,
2013-09-06 16:55:00,83.2,61.5,29.99,SSE,150,1.0,5.0,48,0.00,,,0.00,Wunderground PWS Mod,2013-09-06 20:55:00,
2013-09-06 17:00:00,83.2,61.5,29.99,SSE,150,1.0,5.0,48,0.00,,,0.00,Wunderground PWS Mod,2013-09-06 21:00:00,
2013-09-06 17:04:00,83.6,60.0,29.99,SE,128,0.0,10.0,45,0.00,,,0.00,Wunderground PWS Mod,2013-09-06 21:04:00,
2013-09-06 17:05:00,83.2,61.5,29.99,SSE,150,1.0,5.0,48,0.00,,,0.00,Wunderground PWS Mod,2013-09-06 21:05:00,
2013-09-06 17:10:00,83.2,61.5,29.99,SSE,150,1.0,5.0,48,0.00,,,0.00,Wunderground PWS Mod,2013-09-06 21:10:00,
2013-09-06 17:14:00,83.4,60.4,29.99,NNE,30,1.0,10.0,46,0.00,,,0.00,Wunderground PWS Mod,2013-09-06 21:14:00,
2013-09-06 17:15:00,82.2,60.6,29.99,North,0,1.0,5.0,48,0.00,,,0.00,Wunderground PWS Mod,2013-09-06 21:15:00,
2013-09-06 17:20:00,82.2,60.6,29.99,North,0,1.0,5.0,48,0.00,,,0.00,Wunderground PWS Mod,2013-09-06 21:20:00,
2013-09-06 17:24:00,83.8,60.8,29.99,North,355,1.0,10.0,46,0.00,,,0.00,Wunderground PWS Mod,2013-09-06 21:24:00,
2013-09-06 17:25:00,82.2,60.6,29.99,North,0,1.0,5.0,48,0.00,,,0.00,Wunderground PWS Mod,2013-09-06 21:25:00,
2013-09-06 17:30:00,82.2,60.6,29.99,North,0,1.0,5.0,48,0.00,,,0.00,Wunderground PWS Mod,2013-09-06 21:30:00,
2013-09-06 17:34:00,83.8,61.4,29.99,NNW,334,3.0,10.0,47,0.00,,,0.00,Wunderground PWS Mod,2013-09-06 21:34:00,
2013-09-06 17:35:00,82.2,60.6,29.99,North,0,1.0,5.0,48,0.00,,,0.00,Wunderground PWS Mod,2013-09-06 21:35:00,
2013-09-06 17:39:00,83.4,61.7,29.99,North,355,1.0,10.0,48,0.00,,,0.00,Wunderground PWS Mod,2013-09-06 21:39:00,
2013-09-06 17:40:00,82.2,60.6,29.99,North,0,1.0,5.0,48,0.00,,,0.00,Wunderground PWS Mod,2013-09-06 21:40:00,
2013-09-06 17:45:00,80.7,61.4,29.99,North,0,0.0,4.0,52,0.00,,,0.00,Wunderground PWS Mod,2013-09-06 21:45:00,
2013-09-06 17:49:00,83.2,62.1,29.99,NNW,348,2.0,10.0,49,0.00,,,0.00,Wunderground PWS Mod,2013-09-06 21:49:00,
2013-09-06 17:50:00,80.7,61.4,29.99,North,0,0.0,4.0,52,0.00,,,0.00,Wunderground PWS Mod,2013-09-06 21:50:00,
2013-09-06 17:55:00,80.7,61.4,29.99,North,0,0.0,4.0,52,0.00,,,0.00,Wunderground PWS Mod,2013-09-06 21:55:00,
2013-09-06 17:59:00,83.2,61.5,29.99,NNW,346,0.0,10.0,48,0.00,,,0.00,Wunderground PWS Mod,2013-09-06 21:59:00,
2013-09-06 18:00:00,80.7,61.4,29.99,North,0,0.0,4.0,52,0.00,,,0.00,Wunderground PWS Mod,2013-09-06 22:00:00,
2013-09-06 18:09:00,83.4,62.2,29.99,NNW,346,1.0,10.0,49,0.00,,,0.00,Wunderground PWS Mod,2013-09-06 22:09:00,
2013-09-06 18:10:00,80.7,61.4,29.99,North,0,0.0,4.0,52,0.00,,,0.00,Wunderground PWS Mod,2013-09-06 22:10:00,
2013-09-06 18:15:00,77.4,61.5,29.99,N/A,-327680,0.0,0.0,58,0.00,,,0.00,Wunderground PWS Mod,2013-09-06 22:15:00,
2013-09-06 18:18:00,83.0,61.3,29.99,North,355,0.0,10.0,48,0.00,,,0.00,Wunderground PWS Mod,2013-09-06 22:18:00,
2013-09-06 18:20:00,77.4,61.5,29.99,N/A,-327680,0.0,0.0,58,0.00,,,0.00,Wunderground PWS Mod,2013-09-06 22:20:00,
2013-09-06 18:24:00,82.6,60.9,29.99,NNE,18,3.0,10.0,48,0.00,,,0.00,Wunderground PWS Mod,2013-09-06 22:24:00,
2013-09-06 18:25:00,77.4,61.5,29.99,N/A,-327680,0.0,0.0,58,0.00,,,0.00,Wunderground PWS Mod,2013-09-06 22:25:00,
2013-09-06 18:30:00,77.4,61.5,29.99,N/A,-327680,0.0,0.0,58,0.00,,,0.00,Wunderground PWS Mod,2013-09-06 22:30:00,
2013-09-06 18:34:00,82.2,60.6,29.99,North,5,0.0,10.0,48,0.00,,,0.00,Wunderground PWS Mod,2013-09-06 22:34:00,
2013-09-06 18:35:00,77.4,61.5,29.99,N/A,-327680,0.0,0.0,58,0.00,,,0.00,Wunderground PWS Mod,2013-09-06 22:35:00,
2013-09-06 18:39:00,82.0,61.5,29.99,North,360,0.0,10.0,50,0.00,,,0.00,Wunderground PWS Mod,2013-09-06 22:39:00,
2013-09-06 18:40:00,77.4,61.5,29.99,N/A,-327680,0.0,0.0,58,0.00,,,0.00,Wunderground PWS Mod,2013-09-06 22:40:00,
2013-09-06 18:45:00,74.2,61.2,30.00,N/A,-327680,0.0,0.0,64,0.00,,,0.00,Wunderground PWS Mod,2013-09-06 22:45:00,
2013-09-06 18:48:00,81.4,61.0,29.99,North,360,1.0,10.0,50,0.00,,,0.00,Wunderground PWS Mod,2013-09-06 22:48:00,
2013-09-06 18:50:00,74.2,61.2,30.00,N/A,-327680,0.0,0.0,64,0.00,,,0.00,Wunderground PWS Mod,2013-09-06 22:50:00,
2013-09-06 18:55:00,74.2,61.2,30.00,N/A,-327680,0.0,0.0,64,0.00,,,0.00,Wunderground PWS Mod,2013-09-06 22:55:00,
2013-09-06 18:59:00,80.9,61.1,29.99,North,360,0.0,10.0,51,0.00,,,0.00,Wunderground PWS Mod,2013-09-06 22:59:00,
2013-09-06 19:00:00,74.2,61.2,30.00,N/A,-327680,0.0,0.0,64,0.00,,,0.00,Wunderground PWS Mod,2013-09-06 23:00:00,
2013-09-06 19:05:00,74.2,61.2,30.00,N/A,-327680,0.0,0.0,64,0.00,,,0.00,Wunderground PWS Mod,2013-09-06 23:05:00,
2013-09-06 19:09:00,80.1,61.4,29.99,North,360,0.0,10.0,53,0.00,,,0.00,Wunderground PWS Mod,2013-09-06 23:09:00,
2013-09-06 19:10:00,74.2,61.2,30.00,N/A,-327680,0.0,0.0,64,0.00,,,0.00,Wunderground PWS Mod,2013-09-06 23:10:00,
2013-09-06 19:15:00,71.6,61.7,30.01,N/A,-327680,0.0,0.0,71,0.00,,,0.00,Wunderground PWS Mod,2013-09-06 23:15:00,
2013-09-06 19:18:00,79.2,61.6,29.99,North,360,0.0,10.0,55,0.00,,,0.00,Wunderground PWS Mod,2013-09-06 23:18:00,
2013-09-06 19:20:00,71.6,61.7,30.01,N/A,-327680,0.0,0.0,71,0.00,,,0.00,Wunderground PWS Mod,2013-09-06 23:20:00,
2013-09-06 19:25:00,71.6,61.7,30.01,N/A,-327680,0.0,0.0,71,0.00,,,0.00,Wunderground PWS Mod,2013-09-06 23:25:00,
2013-09-06 19:28:00,77.7,61.7,29.99,North,360,0.0,10.0,58,0.00,,,0.00,Wunderground PWS Mod,2013-09-06 23:28:00,
2013-09-06 19:30:00,71.6,61.7,30.01,N/A,-327680,0.0,0.0,71,0.00,,,0.00,Wunderground PWS Mod,2013-09-06 23:30:00,
2013-09-06 19:34:00,77.0,61.6,29.99,North,360,0.0,10.0,59,0.00,,,0.00,Wunderground PWS Mod,2013-09-06 23:34:00,
2013-09-06 19:35:00,71.6,61.7,30.01,N/A,-327680,0.0,0.0,71,0.00,,,0.00,Wunderground PWS Mod,2013-09-06 23:35:00,
2013-09-06 19:39:00,76.5,61.6,29.99,North,360,0.0,10.0,60,0.00,,,0.00,Wunderground PWS Mod,2013-09-06 23:39:00,
2013-09-06 19:40:00,71.6,61.7,30.01,N/A,-327680,0.0,0.0,71,0.00,,,0.00,Wunderground PWS Mod,2013-09-06 23:40:00,
2013-09-06 19:45:00,69.6,61.3,30.02,N/A,-327680,0.0,0.0,75,0.00,,,0.00,Wunderground PWS Mod,2013-09-06 23:45:00,
2013-09-06 19:49:00,75.3,61.4,30.00,North,360,0.0,10.0,62,0.00,,,0.00,Wunderground PWS Mod,2013-09-06 23:49:00,
2013-09-06 19:50:00,69.6,61.3,30.02,N/A,-327680,0.0,0.0,75,0.00,,,0.00,Wunderground PWS Mod,2013-09-06 23:50:00,
2013-09-06 19:55:00,69.6,61.3,30.02,N/A,-327680,0.0,0.0,75,0.00,,,0.00,Wunderground PWS Mod,2013-09-06 23:55:00,
2013-09-06 19:59:00,74.4,61.4,30.00,North,360,0.0,10.0,64,0.00,,,0.00,Wunderground PWS Mod,2013-09-06 23:59:00,
2013-09-06 20:00:00,69.6,61.3,30.02,N/A,-327680,0.0,0.0,75,0.00,,,0.00,Wunderground PWS Mod,2013-09-07 00:00:00,
2013-09-06 20:05:00,69.6,61.3,30.02,N/A,-327680,0.0,0.0,75,0.00,,,0.00,Wunderground PWS Mod,2013-09-07 00:05:00,
2013-09-06 20:08:00,73.7,61.2,30.00,North,360,0.0,10.0,65,0.00,,,0.00,Wunderground PWS Mod,2013-09-07 00:08:00,
2013-09-06 20:10:00,69.6,61.3,30.02,N/A,-327680,0.0,0.0,75,0.00,,,0.00,Wunderground PWS Mod,2013-09-07 00:10:00,
2013-09-06 20:14:00,73.2,61.2,30.00,North,360,0.0,10.0,66,0.00,,,0.00,Wunderground PWS Mod,2013-09-07 00:14:00,
2013-09-06 20:15:00,69.3,61.4,30.02,North,0,0.0,1.0,76,0.00,,,0.00,Wunderground PWS Mod,2013-09-07 00:15:00,
2013-09-06 20:20:00,69.3,61.4,30.02,North,0,0.0,1.0,76,0.00,,,0.00,Wunderground PWS Mod,2013-09-07 00:20:00,
2013-09-06 20:24:00,72.3,61.1,30.00,North,360,0.0,10.0,68,0.00,,,0.00,Wunderground PWS Mod,2013-09-07 00:24:00,
2013-09-06 20:25:00,69.3,61.4,30.02,North,0,0.0,1.0,76,0.00,,,0.00,Wunderground PWS Mod,2013-09-07 00:25:00,
2013-09-06 20:30:00,69.3,61.4,30.02,North,0,0.0,1.0,76,0.00,,,0.00,Wunderground PWS Mod,2013-09-07 00:30:00,
2013-09-06 20:33:00,71.5,61.6,30.01,North,360,0.0,10.0,71,0.00,,,0.00,Wunderground PWS Mod,2013-09-07 00:33:00,
2013-09-06 20:35:00,69.3,61.4,30.02,North,0,0.0,1.0,76,0.00,,,0.00,Wunderground PWS Mod,2013-09-07 00:35:00,
2013-09-06 20:40:00,69.3,61.4,30.02,North,0,0.0,1.0,76,0.00,,,0.00,Wunderground PWS Mod,2013-09-07 00:40:00,
2013-09-06 20:43:00,70.6,61.5,30.01,North,360,0.0,10.0,73,0.00,,,0.00,Wunderground PWS Mod,2013-09-07 00:43:00,
2013-09-06 20:45:00,69.3,61.8,30.03,North,0,0.0,2.0,77,0.00,,,0.00,Wunderground PWS Mod,2013-09-07 00:45:00,
2013-09-06 20:50:00,69.3,61.8,30.03,North,0,0.0,2.0,77,0.00,,,0.00,Wunderground PWS Mod,2013-09-07 00:50:00,
2013-09-06 20:53:00,69.9,61.2,30.01,North,360,0.0,10.0,74,0.00,,,0.00,Wunderground PWS Mod,2013-09-07 00:53:00,
2013-09-06 20:55:00,69.3,61.8,30.03,North,0,0.0,2.0,77,0.00,,,0.00,Wunderground PWS Mod,2013-09-07 00:55:00,
2013-09-06 21:00:00,69.3,61.8,30.03,North,0,0.0,2.0,77,0.00,,,0.00,Wunderground PWS Mod,2013-09-07 01:00:00,
2013-09-06 21:03:00,69.4,61.1,30.02,North,360,0.0,10.0,75,0.00,,,0.00,Wunderground PWS Mod,2013-09-07 01:03:00,
2013-09-06 21:05:00,69.3,61.8,30.03,North,0,0.0,2.0,77,0.00,,,0.00,Wunderground PWS Mod,2013-09-07 01:05:00,
2013-09-06 21:09:00,69.3,61.0,30.02,North,360,0.0,10.0,75,0.00,,,0.00,Wunderground PWS Mod,2013-09-07 01:09:00,
2013-09-06 21:10:00,69.3,61.8,30.03,North,0,0.0,2.0,77,0.00,,,0.00,Wunderground PWS Mod,2013-09-07 01:10:00,
2013-09-06 21:15:00,68.9,61.4,30.02,North,0,0.0,1.0,77,0.00,,,0.00,Wunderground PWS Mod,2013-09-07 01:15:00,
2013-09-06 21:18:00,68.9,61.0,30.02,North,360,0.0,10.0,76,0.00,,,0.00,Wunderground PWS Mod,2013-09-07 01:18:00,
2013-09-06 21:20:00,68.9,61.4,30.02,North,0,0.0,1.0,77,0.00,,,0.00,Wunderground PWS Mod,2013-09-07 01:20:00,
2013-09-06 21:25:00,68.9,61.4,30.02,North,0,0.0,1.0,77,0.00,,,0.00,Wunderground PWS Mod,2013-09-07 01:25:00,
2013-09-06 21:28:00,69.1,61.2,30.02,North,360,0.0,10.0,76,0.00,,,0.00,Wunderground PWS Mod,2013-09-07 01:28:00,
2013-09-06 21:30:00,68.9,61.4,30.02,North,0,0.0,1.0,77,0.00,,,0.00,Wunderground PWS Mod,2013-09-07 01:30:00,
2013-09-06 21:35:00,68.9,61.4,30.02,North,0,0.0,1.0,77,0.00,,,0.00,Wunderground PWS Mod,2013-09-07 01:35:00,
2013-09-06 21:38:00,69.4,61.5,30.02,North,360,0.0,10.0,76,0.00,,,0.00,Wunderground PWS Mod,2013-09-07 01:38:00,
2013-09-06 21:40:00,68.9,61.4,30.02,North,0,0.0,1.0,77,0.00,,,0.00,Wunderground PWS Mod,2013-09-07 01:40:00,
2013-09-06 21:45:00,68.6,61.5,30.02,North,0,0.0,1.0,78,0.00,,,0.00,Wunderground PWS Mod,2013-09-07 01:45:00,
2013-09-06 21:48:00,69.4,61.5,30.03,North,360,0.0,10.0,76,0.00,,,0.00,Wunderground PWS Mod,2013-09-07 01:48:00,
2013-09-06 21:50:00,68.6,61.5,30.02,North,0,0.0,1.0,78,0.00,,,0.00,Wunderground PWS Mod,2013-09-07 01:50:00,
2013-09-06 21:55:00,68.6,61.5,30.02,North,0,0.0,1.0,78,0.00,,,0.00,Wunderground PWS Mod,2013-09-07 01:55:00,
2013-09-06 21:58:00,69.3,61.8,30.03,North,360,0.0,10.0,77,0.00,,,0.00,Wunderground PWS Mod,2013-09-07 01:58:00,
2013-09-06 22:00:00,68.6,61.5,30.02,North,0,0.0,1.0,78,0.00,,,0.00,Wunderground PWS Mod,2013-09-07 02:00:00,
2013-09-06 22:05:00,68.6,61.5,30.02,North,0,0.0,1.0,78,0.00,,,0.00,Wunderground PWS Mod,2013-09-07 02:05:00,
2013-09-06 22:08:00,69.1,61.6,30.03,North,360,0.0,10.0,77,0.00,,,0.00,Wunderground PWS Mod,2013-09-07 02:08:00,
2013-09-06 22:10:00,68.6,61.5,30.02,North,0,0.0,1.0,78,0.00,,,0.00,Wunderground PWS Mod,2013-09-07 02:10:00,
2013-09-06 22:15:00,67.9,61.1,30.02,North,0,0.0,1.0,79,0.00,,,0.00,Wunderground PWS Mod,2013-09-07 02:15:00,
2013-09-06 22:18:00,68.9,61.4,30.02,North,360,0.0,10.0,77,0.00,,,0.00,Wunderground PWS Mod,2013-09-07 02:18:00,
2013-09-06 22:20:00,67.9,61.1,30.02,North,0,0.0,1.0,79,0.00,,,0.00,Wunderground PWS Mod,2013-09-07 02:20:00,
2013-09-06 22:24:00,68.9,61.4,30.02,North,360,0.0,10.0,77,0.00,,,0.00,Wunderground PWS Mod,2013-09-07 02:24:00,
2013-09-06 22:25:00,67.9,61.1,30.02,North,0,0.0,1.0,79,0.00,,,0.00,Wunderground PWS Mod,2013-09-07 02:25:00,
2013-09-06 22:30:00,67.9,61.1,30.02,North,0,0.0,1.0,79,0.00,,,0.00,Wunderground PWS Mod,2013-09-07 02:30:00,
2013-09-06 22:34:00,68.9,61.4,30.02,North,360,0.0,10.0,77,0.00,,,0.00,Wunderground PWS Mod,2013-09-07 02:34:00,
2013-09-06 22:35:00,67.9,61.1,30.02,North,0,0.0,1.0,79,0.00,,,0.00,Wunderground PWS Mod,2013-09-07 02:35:00,
2013-09-06 22:40:00,67.9,61.1,30.02,North,0,0.0,1.0,79,0.00,,,0.00,Wunderground PWS Mod,2013-09-07 02:40:00,
2013-09-06 22:44:00,68.9,61.4,30.02,North,360,0.0,10.0,77,0.00,,,0.00,Wunderground PWS Mod,2013-09-07 02:44:00,
2013-09-06 22:45:00,67.3,60.9,30.02,North,0,0.0,1.0,80,0.00,,,0.00,Wunderground PWS Mod,2013-09-07 02:45:00,
2013-09-06 22:50:00,67.3,60.9,30.02,North,0,0.0,1.0,80,0.00,,,0.00,Wunderground PWS Mod,2013-09-07 02:50:00,
2013-09-06 22:54:00,68.8,61.7,30.02,North,360,0.0,10.0,78,0.00,,,0.00,Wunderground PWS Mod,2013-09-07 02:54:00,
2013-09-06 22:55:00,67.3,60.9,30.02,North,0,0.0,1.0,80,0.00,,,0.00,Wunderground PWS Mod,2013-09-07 02:55:00,
2013-09-06 22:59:00,68.6,61.5,30.02,North,360,0.0,10.0,78,0.00,,,0.00,Wunderground PWS Mod,2013-09-07 02:59:00,
2013-09-06 23:00:00,67.3,60.9,30.02,North,0,0.0,1.0,80,0.00,,,0.00,Wunderground PWS Mod,2013-09-07 03:00:00,
2013-09-06 23:05:00,67.3,60.9,30.02,North,0,0.0,1.0,80,0.00,,,0.00,Wunderground PWS Mod,2013-09-07 03:05:00,
2013-09-06 23:09:00,68.6,61.5,30.02,North,360,0.0,10.0,78,0.00,,,0.00,Wunderground PWS Mod,2013-09-07 03:09:00,
2013-09-06 23:10:00,67.3,60.9,30.02,North,0,0.0,1.0,80,0.00,,,0.00,Wunderground PWS Mod,2013-09-07 03:10:00,
2013-09-06 23:15:00,66.6,60.9,30.02,North,0,0.0,1.0,82,0.00,,,0.00,Wunderground PWS Mod,2013-09-07 03:15:00,
2013-09-06 23:19:00,68.3,61.2,30.02,North,360,0.0,10.0,78,0.00,,,0.00,Wunderground PWS Mod,2013-09-07 03:19:00,
2013-09-06 23:20:00,66.6,60.9,30.02,North,0,0.0,1.0,82,0.00,,,0.00,Wunderground PWS Mod,2013-09-07 03:20:00,
2013-09-06 23:25:00,66.6,60.9,30.02,North,0,0.0,1.0,82,0.00,,,0.00,Wunderground PWS Mod,2013-09-07 03:25:00,
2013-09-06 23:29:00,67.9,61.1,30.02,North,360,0.0,10.0,79,0.00,,,0.00,Wunderground PWS Mod,2013-09-07 03:29:00,
2013-09-06 23:30:00,66.6,60.9,30.02,North,0,0.0,1.0,82,0.00,,,0.00,Wunderground PWS Mod,2013-09-07 03:30:00,
2013-09-06 23:34:00,67.8,61.0,30.02,North,360,0.0,10.0,79,0.00,,,0.00,Wunderground PWS Mod,2013-09-07 03:34:00,
2013-09-06 23:35:00,66.6,60.9,30.02,North,0,0.0,1.0,82,0.00,,,0.00,Wunderground PWS Mod,2013-09-07 03:35:00,
2013-09-06 23:40:00,66.6,60.9,30.02,North,0,0.0,1.0,82,0.00,,,0.00,Wunderground PWS Mod,2013-09-07 03:40:00,
2013-09-06 23:44:00,67.6,60.9,30.02,North,360,0.0,10.0,79,0.00,,,0.00,Wunderground PWS Mod,2013-09-07 03:44:00,
2013-09-06 23:45:00,66.0,60.7,30.02,N/A,-327680,0.0,0.0,83,0.00,,,0.00,Wunderground PWS Mod,2013-09-07 03:45:00,
2013-09-06 23:50:00,66.0,60.7,30.02,N/A,-327680,0.0,0.0,83,0.00,,,0.00,Wunderground PWS Mod,2013-09-07 03:50:00,
2013-09-06 23:54:00,67.4,61.0,30.02,North,360,0.0,10.0,80,0.00,,,0.00,Wunderground PWS Mod,2013-09-07 03:54:00,
2013-09-06 23:55:00,66.0,60.7,30.02,N/A,-327680,0.0,0.0,83,0.00,,,0.00,Wunderground PWS Mod,2013-09-07 03:55:00,